Temperature
15 15 15 15 15 15 15 15 14 14 15 15 15 15 15 15 15 15 15 15 15 15 15 15 15 15 15 15 15 15 15 15 15 15 15 15 15 15
15 15 15 15 15 15 14 14 14 14 14 14 15 15 15 15 15 15 15 15 15 15 15 15 15 15 15 15 15 15 15 15 15 15 15 15 14 14
15 15 15 15 15 14 14 14 14 14 14 14 14 14 14 15 15 15 15 15 14 14 14 14 14 14 14 15 15 15 15 15 15 15 14 14 14 14
15 15 15 15 14 14 14 14 14 14 14 14 14 14 14 14 14 14 14 14 14 14 14 14 14 14 14 14 14 14 14 14 14 14 14 14 14 14
15 15 15 15 15 14 14 14 14 14 14 14 14 14 14 14 14 14 14 14 14 14 14 14 14 15 15 15 14 14 14 14 14 14 14 14 13 13
15 15 15 15 15 15 15 14 14 14 14 14 14 14 14 14 14 14 14 14 14 14 14 14 14 14 14 14 14 14 14 14 14 14 14 13 13 13
15 15 15 15 15 15 15 15 14 14 14 14 14 14 14 14 14 14 14 14 14 14 14 14 14 14 14 14 14 14 14 14 14 14 13 13 13 13
15 15 15 15 14 14 15 14 14 14 14 14 14 14 14 13 13 13 13 13 13 13 13 13 13 14 13 13 13 13 13 13 13 13 13 13 13 12
14 14 14 14 14 14 14 14 14 14 14 14 14 14 13 13 13 13 13 13 13 13 13 13 13 13 13 13 13 13 13 13 13 13 12 12 12 12
14 14 14 14 14 14 14 14 14 14 14 14 14 13 13 13 13 13 13 13 12 12 12 12 12 12 12 12 12 12 12 12 12 12 12 12 12 12
13 13 13 13 14 14 14 14 14 14 14 14 14 14 13 13 13 13 13 12 12 12 12 12 12 12 12 11 11 11 11 11 11 11 11 11 11 11
12 12 13 13 13 13 14 14 14 14 14 14 13 13 13 13 13 13 13 12 12 12 12 12 11 12 11 11 11 11 11 11 11 11 11 11 11 11
11 12 12 12 13 13 13 13 14 14 13 13 13 13 13 13 12 12 12 12 12 12 11 11 11 11 11 11 10 10 11 11 10 10 10 10 10 10
11 11 11 12 12 12 13 13 13 13 13 13 13 13 13 12 12 12 12 12 11 11 11 11 11 11 11 10 10 10 10 10 10 10 10 10 10 10
10 11 11 11 11 12 12 12 13 13 13 13 13 12 12 12 12 12 11 11 11 11 10 10 10 10 10 10 10 9 9 9 9 9 9 9 9 9
10 10 11 11 11 11 12 12 12 12 12 12 12 12 12 11 11 11 11 11 11 10 10 10 10 10 10 9 9 9 9 9 9 9 8 8 8 8
10 10 10 10 11 11 11 11 12 12 12 12 12 11 11 11 11 11 11 10 10 10 10 10 9 9 9 9 8 8 8 8 8 8 8 7 7 7
10 10 10 10 10 11 11 11 11 11 11 11 11 11 11 11 10 10 10 10 10 9 9 9 9 9 8 8 7 7 7 7 7 7 7 7 6 6
10 10 10 10 10 10 10 10 10 10 10 10 10 10 10 10 10 10 9 9 9 9 9 9 9 8 8 7 6 6 7 6 6 6 6 6 5 5
10 9 9 9 9 10 10 10 10 10 10 10 10 10 10 9 9 9 9 9 8 8 8 8 8 8 7 7 6 6 6 6 6 6 5 5 5 4
9 9 9 9 9 9 9 9 9 9 9 9 9 9 9 9 9 8 8 8 8 8 8 7 7 7 6 6 6 5 5 5 5 5 5 5 4 4
9 9 9 9 9 9 9 9 9 9 9 9 9 8 8 8 8 8 8 8 7 7 7 7 6 6 6 6 5 5 4 4 4 4 4 4 4 3
9 9 9 9 9 9 9 9 9 9 9 8 8 8 8 8 7 7 7 7 7 7 7 6 6 5 5 5 5 4 4 4 4 4 3 3 3 3
Wind_Speed
5 5 4 4 4 4 4 4 5 3 3 4 3 3 5 10 14 16 16 19 20 19 17 16 16 15 14 13 12 11 10 9 8 8 8 8 8 9
4 5 4 3 4 4 4 4 4 5 4 3 4 3 2 4 10 13 15 16 18 19 19 18 18 18 17 16 15 14 13 11 10 10 9 9 10 10
4 5 5 4 4 4 3 3 4 4 5 4 3 2 2 3 3 8 11 11 12 16 19 20 20 20 19 18 17 16 15 14 13 12 11 11 11 11
5 5 5 4 5 4 4 4 4 4 5 5 2 2 3 3 3 3 5 7 8 10 14 18 20 21 20 19 18 18 17 16 16 15 13 12 12 12
4 5 5 5 5 4 4 4 3 3 4 3 2 2 2 1 1 2 2 2 4 6 8 13 17 19 19 19 19 18 18 17 17 17 16 15 14 13
2 4 5 6 6 6 4 4 3 2 2 2 2 1 1 0 1 2 2 2 2 3 4 6 10 13 16 17 17 18 19 19 19 18 18 17 16 15
1 3 4 6 8 6 4 4 4 3 2 2 1 0 0 0 1 1 1 1 1 1 2 2 2 3 6 10 13 16 18 19 19 19 19 18 18 17
1 1 1 4 6 7 7 6 6 4 3 2 1 1 1 1 0 1 1 1 1 2 2 2 2 2 2 3 6 10 12 14 15 16 16 16 17 16
1 1 2 3 4 4 4 5 3 3 5 5 3 2 2 1 2 2 1 1 0 2 2 2 3 2 3 5 6 6 5 5 6 8 10 12 13 13
3 2 4 3 3 5 5 4 2 1 2 3 3 2 2 2 3 3 2 2 2 3 2 2 3 2 2 4 7 8 7 6 6 5 5 6 8 9
7 6 4 4 4 6 6 5 3 1 1 4 4 5 5 5 5 4 3 3 3 3 3 2 2 3 3 3 6 8 8 8 8 7 6 6 6 6
5 6 7 5 4 5 6 6 6 3 4 4 4 4 4 4 5 3 3 3 2 1 2 2 2 3 3 3 3 7 8 8 9 10 9 8 7 5
3 3 4 5 4 4 5 5 6 6 4 5 4 3 3 3 3 3 3 3 2 1 1 1 2 2 2 3 3 4 6 6 8 9 12 11 9 5
2 2 3 4 4 4 3 4 6 6 5 5 4 3 3 2 2 3 5 5 4 2 1 2 2 1 2 2 3 4 4 6 7 5 9 13 12 11
2 3 3 5 6 5 5 5 5 5 5 5 4 3 2 2 3 3 5 7 9 9 7 4 2 1 2 2 2 3 3 4 6 5 6 7 8 8
5 6 8 9 7 6 6 5 4 4 5 5 4 3 3 3 4 3 3 3 4 5 8 12 9 4 3 4 4 4 4 4 5 5 5 7 11 13
5 6 7 6 6 6 6 6 5 5 5 4 5 5 5 5 4 4 4 4 4 4 5 5 9 12 7 5 5 5 4 4 5 5 4 6 7 8
9 8 8 8 8 7 7 7 6 6 5 5 6 5 5 5 5 5 5 5 5 4 4 4 3 4 4 6 7 4 4 4 4 5 4 4 4 5
10 9 8 8 8 7 7 7 6 6 5 6 6 6 5 5 5 5 5 5 5 4 4 4 4 3 3 3 5 10 4 4 4 5 5 4 3 3
7 7 7 7 7 7 7 6 6 6 6 6 6 5 5 5 5 5 5 4 4 3 4 4 4 3 2 2 2 4 10 5 4 4 4 3 3 5
6 6 6 6 6 6 6 6 6 6 6 5 5 5 5 5 5 5 5 6 4 3 4 3 4 3 2 4 4 4 5 11 8 3 3 3 3 5
4 5 5 5 5 5 5 5 5 5 5 5 4 4 4 5 5 6 5 4 3 3 3 3 5 5 5 5 4 3 4 6 10 13 12 7 2 3
3 3 4 4 4 4 4 5 5 5 4 4 4 4 4 5 5 5 4 4 4 4 4 4 4 5 4 4 4 3 5 5 5 5 7 14 11 9
Wind_Direction
194 190 184 187 182 179 169 166 168 205 252 262 258 252 220 212 213 207 210 215 217 218 219 220 221 222 224 226 230 234 236 240 245 252 260 268 274 278
183 175 180 184 184 179 178 181 180 184 220 250 248 259 245 216 211 206 214 220 223 226 227 228 229 229 229 228 230 231 233 234 239 247 255 262 268 273
190 184 196 189 188 191 184 183 188 182 215 253 249 251 227 217 191 202 214 219 228 234 236 237 237 236 234 232 232 233 234 236 240 246 251 257 264 270
198 194 210 200 196 196 192 198 197 193 199 233 255 244 229 216 198 200 205 213 225 241 244 245 243 241 239 237 236 236 237 238 240 243 248 254 261 268
213 200 205 187 194 196 196 199 198 193 190 205 244 249 248 221 194 228 222 217 231 244 255 253 248 245 243 242 242 243 243 244 244 245 247 251 257 263
255 220 204 189 192 189 188 191 181 171 172 189 224 267 284 285 157 215 245 238 253 271 278 268 256 249 246 247 248 248 249 250 250 249 248 249 252 258
296 230 213 200 195 180 169 171 161 153 147 150 161 70 5 54 221 220 223 300 302 323 319 313 278 259 257 256 256 256 255 254 253 251 249 249 251 255
290 275 197 177 185 178 167 162 156 151 155 149 152 161 234 225 164 116 110 67 342 356 13 342 3 338 315 292 288 277 271 266 260 255 253 252 253 255
225 176 146 146 148 152 157 146 136 135 150 154 154 180 185 204 143 105 97 105 1 333 21 2 0 1 5 14 9 360 346 324 297 276 266 262 261 262
34 86 117 120 155 165 160 150 141 100 151 140 150 163 159 141 131 131 125 90 45 13 30 35 354 349 344 2 19 26 25 18 8 352 322 301 290 284
39 53 84 102 131 156 152 150 135 74 95 131 136 128 125 122 113 91 75 73 51 4 10 53 352 339 339 346 4 17 21 20 17 11 1 350 337 326
35 35 46 63 80 131 148 146 144 147 129 112 99 94 84 85 88 97 120 106 97 27 351 51 9 8 7 344 354 11 15 17 19 19 14 7 1 356
33 18 7 26 55 89 127 144 158 151 139 128 113 100 85 67 58 70 99 118 117 94 298 94 44 25 28 341 347 1 14 11 11 13 15 15 14 12
19 345 337 15 51 75 102 128 133 130 124 118 110 100 97 85 67 70 75 76 81 93 100 108 90 56 40 20 350 345 4 18 17 7 11 18 23 30
11 14 37 51 61 62 71 96 107 118 122 119 118 109 100 93 79 70 59 66 61 54 51 48 64 69 78 67 7 351 355 4 13 13 22 34 33 30
28 39 56 64 63 58 58 66 81 108 121 120 114 96 77 70 61 61 66 61 59 29 28 39 44 64 73 60 61 35 20 12 360 10 36 46 46 45
43 53 52 52 56 53 54 58 63 76 86 89 96 92 81 72 57 50 66 68 72 50 21 17 45 64 64 69 59 37 26 19 6 6 40 59 51 37
61 61 58 58 59 59 61 60 58 64 74 86 88 89 88 84 74 62 70 79 77 58 36 12 19 38 46 48 40 39 25 13 3 14 36 61 56 24
62 60 57 56 56 58 59 63 60 54 64 76 81 83 86 84 82 79 79 81 76 61 34 20 30 62 72 51 18 29 31 11 13 21 25 39 41 356
52 54 52 50 53 58 59 61 61 58 62 66 70 74 81 87 85 83 82 90 85 65 40 26 28 42 86 98 59 12 25 34 31 23 7 10 2 341
46 46 44 45 48 54 58 59 61 59 59 63 64 70 79 89 90 89 87 85 82 74 57 14 336 5 92 73 68 20 5 32 48 49 14 17 2 355
52 48 43 45 48 53 57 61 62 58 55 59 63 69 78 89 99 98 96 93 83 84 70 23 16 47 63 81 82 45 10 11 33 48 46 47 51 1
70 59 49 45 46 50 59 63 64 55 48 51 64 77 88 92 95 97 97 92 91 87 81 64 49 55 62 74 81 60 39 20 10 18 12 21 31 30
Height
1523 1525 1526 1527 1528 1529 1530 1531 1533 1533 1533 1534 1536 1537 1538 1539 1540 1541 1543 1544 1545 1546 1546 1547 1547 1547 1547 1548 1548 1548 1548 1548 1548 1547 1546 1545 1544 1542
1522 1523 1524 1525 1525 1526 1527 1528 1528 1529 1530 1530 1531 1532 1534 1535 1536 1538 1539 1540 1542 1542 1543 1543 1544 1544 1545 1545 1545 1545 1545 1545 1545 1544 1544 1543 1542 1540
1520 1521 1522 1523 1524 1524 1524 1525 1525 1526 1526 1527 1527 1528 1529 1531 1532 1534 1535 1536 1538 1539 1540 1540 1541 1541 1542 1542 1542 1542 1542 1542 1541 1541 1541 1540 1539 1538
1518 1519 1521 1521 1522 1522 1522 1522 1522 1523 1523 1523 1524 1525 1526 1527 1528 1530 1531 1532 1534 1535 1536 1536 1537 1537 1537 1538 1538 1538 1538 1538 1538 1538 1537 1536 1535 1534
1517 1518 1519 1520 1520 1520 1520 1520 1520 1520 1520 1521 1521 1522 1522 1524 1525 1526 1528 1529 1530 1531 1531 1532 1532 1533 1533 1533 1533 1533 1534 1534 1534 1533 1533 1532 1532 1531
1516 1517 1518 1518 1519 1519 1519 1518 1518 1518 1518 1519 1519 1519 1520 1521 1522 1523 1524 1525 1526 1527 1527 1527 1528 1528 1528 1529 1529 1528 1529 1529 1528 1528 1528 1528 1527 1526
1513 1514 1515 1517 1517 1518 1518 1517 1517 1517 1517 1517 1518 1518 1518 1519 1520 1521 1521 1522 1522 1523 1523 1523 1524 1524 1524 1524 1524 1524 1524 1523 1523 1523 1523 1523 1522 1522
1510 1512 1513 1514 1515 1516 1517 1517 1517 1517 1517 1517 1517 1518 1518 1518 1519 1519 1519 1520 1521 1521 1521 1521 1520 1520 1520 1520 1520 1520 1519 1519 1518 1518 1517 1517 1517 1516
1507 1509 1511 1512 1514 1515 1516 1516 1517 1517 1517 1518 1518 1518 1518 1518 1518 1518 1518 1519 1519 1519 1519 1519 1518 1518 1518 1517 1517 1516 1516 1515 1514 1513 1513 1512 1512 1511
1505 1506 1508 1510 1512 1514 1515 1516 1516 1517 1517 1518 1518 1519 1519 1519 1518 1519 1518 1519 1519 1519 1518 1519 1518 1517 1517 1516 1515 1514 1513 1513 1511 1510 1510 1509 1508 1507
1503 1504 1506 1508 1510 1511 1513 1515 1516 1517 1518 1518 1519 1519 1519 1519 1519 1519 1519 1519 1519 1519 1519 1518 1518 1517 1517 1516 1515 1514 1513 1512 1510 1509 1508 1507 1505 1504
1502 1502 1504 1505 1507 1509 1511 1513 1515 1516 1518 1518 1519 1519 1520 1520 1520 1520 1520 1520 1519 1519 1519 1519 1518 1517 1517 1517 1516 1514 1513 1512 1510 1509 1507 1506 1504 1503
1501 1501 1502 1503 1505 1507 1509 1512 1514 1515 1517 1518 1519 1520 1520 1521 1521 1520 1520 1520 1520 1520 1520 1519 1518 1518 1517 1517 1516 1515 1513 1512 1510 1509 1507 1505 1504 1502
1500 1500 1501 1502 1503 1505 1508 1510 1512 1515 1516 1518 1519 1520 1520 1521 1521 1521 1521 1521 1520 1520 1520 1519 1519 1518 1517 1516 1516 1515 1513 1512 1510 1509 1507 1505 1503 1501
1500 1500 1500 1501 1503 1505 1507 1509 1512 1514 1516 1518 1519 1520 1521 1521 1521 1521 1521 1521 1521 1521 1520 1520 1519 1518 1517 1516 1516 1515 1514 1512 1510 1508 1506 1504 1502 1500
1502 1501 1502 1502 1504 1505 1507 1509 1511 1514 1516 1517 1519 1520 1520 1521 1521 1522 1522 1522 1522 1521 1521 1520 1519 1518 1517 1516 1516 1514 1513 1512 1510 1508 1506 1504 1502 1499
1504 1504 1504 1505 1506 1507 1509 1510 1512 1514 1516 1517 1519 1520 1521 1521 1522 1522 1522 1522 1522 1522 1521 1520 1519 1518 1518 1517 1516 1515 1514 1512 1510 1508 1506 1503 1501 1499
1508 1507 1507 1508 1509 1510 1511 1512 1514 1515 1517 1518 1519 1520 1521 1522 1522 1522 1523 1522 1522 1522 1521 1520 1520 1519 1518 1517 1517 1515 1514 1512 1510 1508 1506 1503 1501 1499
1512 1512 1512 1512 1513 1513 1514 1515 1516 1517 1518 1519 1520 1521 1522 1522 1523 1523 1523 1523 1522 1522 1521 1520 1519 1518 1518 1517 1517 1516 1514 1512 1510 1508 1506 1504 1502 1499
1517 1516 1516 1516 1517 1517 1518 1518 1519 1520 1520 1521 1522 1522 1523 1523 1523 1523 1523 1523 1522 1522 1521 1520 1519 1518 1518 1518 1517 1516 1515 1513 1511 1509 1507 1505 1503 1501
1520 1520 1520 1520 1520 1520 1520 1521 1521 1521 1522 1522 1523 1523 1523 1523 1523 1523 1523 1523 1522 1521 1520 1520 1519 1518 1518 1518 1517 1516 1515 1514 1512 1510 1508 1505 1503 1501
1522 1522 1522 1522 1522 1522 1522 1522 1522 1522 1522 1522 1523 1523 1523 1523 1523 1523 1523 1523 1522 1521 1520 1520 1519 1519 1519 1518 1517 1517 1516 1514 1513 1511 1508 1506 1504 1501
1524 1523 1523 1522 1522 1522 1522 1522 1522 1522 1522 1522 1522 1523 1523 1523 1523 1523 1523 1522 1522 1521 1520 1520 1520 1519 1519 1519 1518 1517 1516 1515 1513 1511 1509 1507 1505 1503